Location: Savignano sul Rubicone
(44.0950°N, 12.4090°E)
Time: 01:16:36
(UTC+01:00)

N. Korean satellite - Pass Details

Date: 01 November 2019
Orbit: 456 x 506 km, 97.2° (Epoch: 10 November)

Event Time Altitude Azimuth Distance (km) Brightness Sun altitude
Rises 05:23:25 0° 24° (NNE) 2,601 10.5 -15.3°
Reaches altitude 10° 05:25:47 10° 38° (NE) 1,718 9.8 -14.9°
Maximum altitude 05:28:52 25° 95° (E) 1,057 9.2 -14.4°
Drops below altitude 10° 05:31:58 10° 152° (SSE) 1,715 9.8 -13.8°
Sets 05:34:19 0° 166° (SSE) 2,595 10.6 -13.4°
